Weather History for Truckee-Tahoe, CA

Change the Weather History Date:

Thursday, December 6, 2012

  Actual Average Record
Temperature  
Mean Temperature 37 °F -  
Max Temperature 48 °F 41 °F 66 °F (2006)
Min Temperature 26 °F 17 °F -7 °F (1972)
Degree Days  
Heating Degree Days 28    
Moisture  
Dew Point 30 °F    
Average Humidity 94    
Maximum Humidity 100    
Minimum Humidity 46    
Precipitation  
Precipitation 0.00 in - - ()
Sea Level Pressure  
Sea Level Pressure 30.16 in    
Wind  
Wind Speed 1 mph (South)    
Max Wind Speed 8 mph    
Max Gust Speed -    
Visibility 4 miles    
Events Fog    
Averages and records for this station are not official NWS values.
T = Trace of Precipitation, MM = Missing Value Source: NWS Daily Summary

Daily Weather History Graph

Daily Weather History Graph

Search for Another Location

Airport:

Trip Planner

Search our weather history database for the weather conditions in past years. The results will help you decide how hot, cold, wet, or windy it might be!

Date:

Astronomy

Dec. 06, 2012 Rise Set
Actual Time 7:06 AM PST 4:37 PM PST
Civil Twilight 6:36 AM PST 5:07 PM PST
Nautical Twilight 6:03 AM PST 5:40 PM PST
Astronomical Twilight 5:30 AM PST 6:12 PM PST
Moon No Moon Rise 12:03 PM PST (12/6)
Length of Visible Light 10h 30m
Length of Day
9h 30m
Waning Gibbous, 48% of the Moon is Illuminated
Dec 6
Waning Gibbous
Dec 13
New
Dec 19
First Quarter
Dec 28
Full
Jan 4
Last Quarter

Hourly Weather History & Observations

Time (PST) Temp. Windchill Dew Point Humidity Pressure Visibility Wind Dir Wind Speed Gust Speed Precip Events Conditions
12:15 AM 35.6 °F - 35.6 °F 100% 30.19 in 0.2 mi Calm Calm - N/A Fog Fog
12:35 AM 33.8 °F - 33.8 °F 100% 30.18 in 0.2 mi Calm Calm - N/A Fog Fog
12:55 AM 33.8 °F - 32.0 °F 93% 30.18 in 0.2 mi Calm Calm - N/A Fog Fog
1:15 AM 32.0 °F - 32.0 °F 100% 30.17 in 0.2 mi Calm Calm - N/A Fog Fog
1:35 AM 32.0 °F 27.5 °F 32.0 °F 100% 30.17 in 0.2 mi SE 4.6 mph - N/A Fog Fog
1:55 AM 32.0 °F - 32.0 °F 100% 30.17 in 0.2 mi Calm Calm - N/A Fog Fog
2:15 AM 32.0 °F - 32.0 °F 100% 30.17 in 0.2 mi Calm Calm - N/A Fog Fog
2:35 AM 32.0 °F - 32.0 °F 100% 30.17 in 0.2 mi Calm Calm - N/A Fog Light Freezing Fog
2:55 AM 32.0 °F - 32.0 °F 100% 30.17 in 0.2 mi Calm Calm - N/A Fog Light Freezing Fog
3:15 AM 30.2 °F - 30.2 °F 100% 30.16 in 0.2 mi Calm Calm - N/A Fog Light Freezing Fog
3:35 AM 30.2 °F 26.7 °F 30.2 °F 100% 30.17 in 0.2 mi SSE 3.5 mph - N/A Fog Light Freezing Fog
3:55 AM 30.2 °F 26.7 °F 30.2 °F 100% 30.16 in 0.2 mi South 3.5 mph - N/A Fog Light Freezing Fog
4:15 AM 30.2 °F - 30.2 °F 100% 30.15 in 0.2 mi Calm Calm - N/A Fog Light Freezing Fog
4:35 AM 28.4 °F 24.6 °F 28.4 °F 100% 30.14 in 0.2 mi WNW 3.5 mph - N/A Fog Light Freezing Fog
4:55 AM 30.2 °F 25.4 °F 28.4 °F 93% 30.15 in 0.2 mi NNW 4.6 mph - N/A Fog Light Freezing Fog
5:15 AM 30.2 °F 26.7 °F 30.2 °F 100% 30.15 in 0.2 mi East 3.5 mph - N/A Fog Light Freezing Fog
5:35 AM 30.2 °F - 28.4 °F 93% 30.16 in 0.2 mi Calm Calm - N/A Fog Light Freezing Fog
6:45 AM 35.6 °F - 35.6 °F 100% 30.16 in 0.2 mi Calm Calm - N/A Fog Light Freezing Fog
7:45 AM 28.4 °F - 28.4 °F 100% 30.16 in 0.2 mi Calm Calm - N/A Fog Light Freezing Fog
8:55 AM 28.4 °F - 28.4 °F 100% 30.16 in 0.2 mi Calm Calm - N/A Fog Light Freezing Fog
9:50 AM 30.2 °F - 30.2 °F 100% 30.18 in 0.2 mi Calm Calm - N/A Fog Light Freezing Fog
10:45 AM 32.0 °F - 32.0 °F 100% 30.16 in 0.2 mi Calm Calm - N/A Fog Fog
11:50 AM 37.4 °F - 37.4 °F 100% 30.14 in 10.0 mi Calm Calm - N/A   Partly Cloudy
12:45 PM 42.8 °F 41.1 °F 42.8 °F 100% 30.11 in 10.0 mi SE 3.5 mph - N/A   Clear
1:45 PM 48.2 °F - 30.2 °F 50% 30.10 in 10.0 mi WNW 6.9 mph - N/A   Clear
2:55 PM 48.2 °F - 28.4 °F 46% 30.09 in 10.0 mi West 8.1 mph - N/A   Clear
3:45 PM 44.6 °F 42.2 °F 30.2 °F 57% 30.09 in 10.0 mi NW 4.6 mph - N/A   Clear
4:45 PM 37.4 °F 32.8 °F 32.0 °F 81% 30.10 in 10.0 mi SSE 5.8 mph - N/A   Partly Cloudy
4:55 PM 35.6 °F 30.7 °F 32.0 °F 87% 30.11 in 10.0 mi SSE 5.8 mph - N/A   Clear
5:15 PM 33.8 °F 29.6 °F 32.0 °F 93% 30.11 in 10.0 mi SSE 4.6 mph - N/A   Clear
5:35 PM 32.0 °F 28.7 °F 30.2 °F 93% 30.12 in 10.0 mi SSE 3.5 mph - N/A   Clear
5:55 PM 32.0 °F - 30.2 °F 93% 30.13 in 10.0 mi Calm Calm - N/A   Clear
6:15 PM 32.0 °F 28.7 °F 30.2 °F 93% 30.14 in 10.0 mi South 3.5 mph - N/A   Clear
6:35 PM 30.2 °F 26.7 °F 28.4 °F 93% 30.16 in 10.0 mi South 3.5 mph - N/A   Clear
6:55 PM 30.2 °F - 28.4 °F 93% 30.17 in 10.0 mi Calm Calm - N/A   Clear
7:15 PM 30.2 °F 25.4 °F 28.4 °F 93% 30.18 in 10.0 mi South 4.6 mph - N/A   Clear
7:35 PM 30.2 °F - 28.4 °F 93% 30.18 in 10.0 mi Calm Calm - N/A   Clear
7:55 PM 30.2 °F 26.7 °F 28.4 °F 93% 30.19 in 10.0 mi West 3.5 mph - N/A   Clear
8:15 PM 28.4 °F - 28.4 °F 100% 30.19 in 10.0 mi Calm Calm - N/A   Clear
8:35 PM 30.2 °F - 28.4 °F 93% 30.19 in 10.0 mi Calm Calm - N/A   Clear
8:55 PM 28.4 °F - 26.6 °F 93% 30.19 in 10.0 mi Calm Calm - N/A   Clear
9:15 PM 28.4 °F - 26.6 °F 93% 30.19 in 10.0 mi Calm Calm - N/A   Clear
9:35 PM 28.4 °F - 28.4 °F 100% 30.19 in 10.0 mi Calm Calm - N/A   Clear
9:55 PM 28.4 °F - 28.4 °F 100% 30.20 in 7.0 mi Calm Calm - N/A   Clear
10:15 PM 28.4 °F 24.6 °F 28.4 °F 100% 30.20 in 2.0 mi ESE 3.5 mph - N/A   Clear
10:35 PM 26.6 °F - 26.6 °F 100% 30.20 in 1.0 mi Calm Calm - N/A   Mostly Cloudy
10:55 PM 26.6 °F - 26.6 °F 100% 30.20 in 0.2 mi Calm Calm - N/A Fog Light Freezing Fog
11:15 PM 26.6 °F - 26.6 °F 100% 30.20 in 0.2 mi Calm Calm - N/A Fog Light Freezing Fog
11:35 PM 26.6 °F - 26.6 °F 100% 30.20 in 0.2 mi Calm Calm - N/A Fog Light Freezing Fog
11:55 PM 26.6 °F - 26.6 °F 100% 30.21 in 0.2 mi Calm Calm - N/A Fog Light Freezing Fog